Showing default

DRAGON ENDURANCE 4, 63204

Orbit data source: Space-Track

DRAGON ENDURANCE 4, 63204 is a payload satellite owned by SpaceX (US) in LEO that was launched on Fri, 14 Mar 2025 UTC via an FALCON 9 launch vehicle from the Air Force Eastern Test Range (AFETR). Payload-class satellites include a variety of spacecraft equipped with specific instruments for various scientific and technological missions. These include communications satellites like Starlink; space stations such as the ISS; scientific satellites like the Hubble; Earth observation satellites from companies like Planet Labs, Umbra, and HawkEye 360; GPS; miniature CubeSats for education and research; and military/defense satellites.

Loading next visibility...
Identifier
63204, 2025-049A
Orbit
LEO
Last TLE update
11 hours ago
Origin
Manufacturer
SpaceX
Mission
Operational spacecraft
Bus & Motor
DRAGON CM, Unknown motor
Mass
~13,055 kg wet, ~9,500 kg dry
Launch date (UTC)
2025-03-14 (4 months ago)
Launch vehicle
FALCON 9
Launch site
Air Force Eastern Test Range (AFETR)
Object type
Payload
Rocket body
Debris
Shape & HBR
Unknown
Radar Cross Section
RCS unknown

Expand to show TLE details & history

TLE from 11 hours ago
0 DRAGON ENDURANCE 4
1 63204U 25049A   25186.50618345  .00006730  00000-0  12412-3 0  9998
2 63204  51.6343 216.2777 0002492 336.9059  23.1817 15.50384048 17304
Epoch: 2025-07-05T12:08Z
TLE epoch observation values (Epoch: 2025-07-05T12:08:54.25Z)
Latitude
-0.00005°
Longitude
110.30837°
Altitude
414.789 km
Speed
7.664 km/s
True Right ascension
14h 25m 06s
True Declination
0° 00' 00"
Sunlit
Object was in daylight at epoch
Visualization orbit readout
Latitude
-1.27538°
Longitude
107.06777°
Altitude
414.909 km
Speed
7.664 km/s
Apparent Right ascension
17h 15m 46s
Apparent Declination
-39° 10' 37"
Sunlit
Object is in daylight
Visualization observer readout
Local Sidereal Time
10:54:29
Azimuth
119.596° SE
Elevation
-27.418°
Doppler factor
1
Orbital elements
Apogee altitude
417.806 km
Perigee altitude
414.42 km
Semi-major axis
6,794.25 km
Eccentricity
0.00025
Inclination
51.6343°
RAAN
216.2777°
Arg. of periapsis
336.9059°
True anomaly
Unknown
Mean anomaly
23.1817°
Eccentric anomaly
Unknown
Mean motion
3.87553 °/min
Orbital period
92.89 mins
BSTAR
0.00012412
Loading maneuver chart data...
Loading SW <> Apogee altitude chart data...
Loading historical data...
Loading historical data...
Loading historical data...
Loading historical data...
Loading historical data...
Loading historical data...
Loading historical data...
Other satellites on launch #49 in the year 2025 (2025-03-14 UTC)

DRAGON ENDURANCE 4 Visibility forecast

Observer location: undefined°, undefined°

Span
Click to sort rows by Start time (UTC) header in descending order
Start Az.
Max El. time (UTC)
Max El. Az.
Max El.
End time (UTC)
End Az.
5 mins2025-07-06 05:23:13.082Z258.368° W2025-07-06 05:25:13.082Z337.577° N37.536°2025-07-06 05:28:13.082Z43.934° NE
4 mins2025-07-06 10:16:13.082Z342.222° N2025-07-06 10:18:13.082Z38.25° NE23.481°2025-07-06 10:20:13.082Z80.83° E
4 mins2025-07-06 11:53:13.082Z276.755° WNW2025-07-06 11:54:13.082Z245.813° WSW31.63°2025-07-06 11:57:13.082Z155.805° SSE
|